Regional Weather Roundup
Issued by NWS

Home | Current Version | Previous Version | Text Only | Print | Product List | Glossary On
Versions: 1 2 3 4 5 6 7 8 9 10 11 12 13 14 15 16 17 18 19 20 21 22 23 24 25 26 27
000
ASUS46 KPQR 031210
RWROR

OREGON REGIONAL WEATHER ROUNDUP
NATIONAL WEATHER SERVICE PORTLAND OR
500 AM PDT TUE AUG 03 2021

NOTE: "FAIR" INDICATES FEW OR NO CLOUDS BELOW 12,000 FEET WITH
NO SIGNIFICANT WEATHER AND/OR OBSTRUCTIONS TO VISIBILITY.

ORZ001>013-031300-
NORTHWEST OREGON


CITY           SKY/WX    TMP DP  RH WIND       PRES   REMARKS
ASTORIA        PTCLDY    56  53  90 NW17      30.11S
6HR MIN TEMP:  56; 6HR MAX TEMP:  58;

TILLAMOOK      PTCLDY    46  45  93 CALM      30.13S
NEWPORT        PTCLDY    46  46 100 CALM      30.14S FOG
FLORENCE       CLOUDY    55  53  94 CALM      30.11S
PORTLAND       PTCLDY    65  54  67 NW5       30.06S
6HR MIN TEMP:  65; 6HR MAX TEMP:  77; 6HR PCP: TRACE;

VANCOUVER WA   CLEAR     65  51  60 CALM      30.05S
6HR MIN TEMP:  64; 6HR MAX TEMP:  76; 6HR PCP: TRACE;

SCAPPOOSE      CLEAR     62  55  77 CALM      30.05R
6HR MIN TEMP:  61; 6HR MAX TEMP:  75;

HILLSBORO      CLEAR     60  52  74 NW3       30.05S
6HR MIN TEMP:  60; 6HR MAX TEMP:  74;

AURORA         CLEAR     62  56  80 S3        30.06S
6HR MIN TEMP:  61; 6HR MAX TEMP:  79;

MCMINNVILLE    CLEAR     59  54  83 W6        30.05S
6HR MIN TEMP:  59; 6HR MAX TEMP:  67;

SALEM          CLEAR     65  54  67 W3        30.05S
6HR MIN TEMP:  64; 6HR MAX TEMP:  74;

CORVALLIS      CLEAR     57  52  83 NW13      30.08S
EUGENE         CLEAR     59  53  80 S9        30.08S
6HR MIN TEMP:  59; 6HR MAX TEMP:  71;

CRESWELL       CLOUDY    59  54  82 W5        30.08R
$$

ORZ021-028-031300-
SOUTHWEST OREGON


CITY           SKY/WX    TMP DP  RH WIND       PRES   REMARKS
NORTH BEND     CLOUDY    57  54  89 N13       30.14F
6HR MIN TEMP:  56; 6HR MAX TEMP:  58;

BROOKINGS      LGT RAIN  52  52 100 CALM      30.07S VSB 1/4
ROSEBURG       CLEAR     62  50  64 N6        30.08F
6HR MIN TEMP:  62; 6HR MAX TEMP:  74;

SEXTON SUMMIT  CLEAR     63  53  70 N5        30.16S
6HR MIN TEMP:  63; 6HR MAX TEMP:  68;

GRANTS PASS    CLOUDY    66  52  59 CALM      30.07S
MEDFORD        CLOUDY    69  52  54 SE6       30.04R
6HR MIN TEMP:  68; 6HR MAX TEMP:  85;

$$

ORZ014>016-041-031300-
COLUMBIA GORGE


CITY           SKY/WX    TMP DP  RH WIND       PRES   REMARKS
TROUTDALE      CLEAR     66  56  70 W3        30.05S
6HR MIN TEMP:  65; 6HR MAX TEMP:  77;

THE DALLES     CLEAR     74  61  63 W6        29.98S
6HR MIN TEMP:  74; 6HR MAX TEMP:  86;

$$

ORZ029>031-041-044-049-050-061>064-502-503-505>511-031300-
EASTERN OREGON


CITY           SKY/WX    TMP DP  RH WIND       PRES   REMARKS
MADRAS         PTCLDY    63  46  55 MISG      30.13S
REDMOND        PTCLDY    54  44  69 CALM      30.14S
6HR MIN TEMP:  53; 6HR MAX TEMP:  68;

BEND           CLEAR     61  48  63 S7        30.17F
PRINEVILLE     CLOUDY    57  50  77 CALM      30.16S
KLAMATH FALLS  CLEAR     51  40  65 CALM      30.20R
6HR MIN TEMP:  48; 6HR MAX TEMP:  65;

LAKEVIEW       CLEAR     45  38  76 N6        30.25S
HERMISTON      CLEAR     68  55  63 S5        29.99R
6HR MIN TEMP:  66; 6HR MAX TEMP:  81;

PENDLETON      CLEAR     70  51  51 SE3       30.04S
6HR MIN TEMP:  70; 6HR MAX TEMP:  79;

JOHN DAY       CLEAR     64  48  54 E8        30.20S
MEACHAM        CLEAR     52  47  83 CALM      30.20R
6HR MIN TEMP:  52; 6HR MAX TEMP:  66;

LA GRANDE      CLEAR     59  53  80 SW3       30.16R
6HR MIN TEMP:  59; 6HR MAX TEMP:  75;

BAKER CITY     CLEAR     54  52  93 CALM      30.18S
6HR MIN TEMP:  54; 6HR MAX TEMP:  70;

BURNS          CLEAR     56  47  71 CALM      30.23S
6HR MIN TEMP:  54; 6HR MAX TEMP:  67;

ROME             N/A     60  50  69 S8        30.21S
6HR MIN TEMP:  59; 6HR MAX TEMP:  80;

ONTARIO        CLEAR     69  59  70 CALM      30.13R
6HR MIN TEMP:  67; 6HR MAX TEMP:  79; 6HR PCP: TRACE;

$$


OTHER REGIONAL REPORTS

CITY           SKY/WX    TMP DP  RH WIND       PRES   REMARKS
SEATTLE        PTCLDY    62  49  62 NW3       30.08S
6HR MIN TEMP:  62; 6HR MAX TEMP:  71;

SPOKANE        MOCLDY    70  52  52 S7        30.10S SMOKE
6HR MIN TEMP:  70; 6HR MAX TEMP:  78;

VANCOUVER BC   PTCLDY    61  57  88 VRB2      30.06S
PRINCE GEORGE  MOCLDY    55  54  94 SW8       30.11R THUNDER FOG
DAWSON CREEK   FOG       57  57 100 S2        30.01  VSB 1/8
WHITEHORSE     CLOUDY    54  50  87 S7        30.01S
BOISE          CLEAR     69  60  73 SE10      30.15S
6HR MIN TEMP:  69; 6HR MAX TEMP:  79;

REDDING        PTCLDY    63  44  50 CALM      29.97S
6HR MIN TEMP:  62; 6HR MAX TEMP:  77;

SAN FRANCISCO  MOCLDY    55  51  86 SW3       30.05R
6HR MIN TEMP:  55; 6HR MAX TEMP:  57;


$$




USA.gov is the U.S. government's official web portal to all federal, state and local government web resources and services.